Location: Grasslands National Park East Block
(49.0708°N, 106.5295°W)
Time: 08:26:09
(UTC-06:00)

SR - Pass Details

Date: 22 October 2019
Orbit: 574 x 882 km, 66.7° (Epoch: 16 November)

Event Time Altitude Azimuth Distance (km) Brightness Sun altitude
Exits shadow 02:41:49 11° 16° (NNE) 2,395 ? -45.5°
Drops below altitude 10° 02:42:26 10° 22° (NNE) 2,494 ? -45.4°
Sets 02:46:26 0° 48° (NE) 3,468 ? -45.0°
